TimeCST,TemperatureF,Dew PointF,Humidity,Sea Level PressureIn,VisibilityMPH,Wind Direction,Wind SpeedMPH,Gust SpeedMPH,PrecipitationIn,Events,Conditions,WindDirDegrees,DateUTC
12:39 AM,66.2,64.4,94,29.82,10.0,South,11.5,-,N/A,,Mostly Cloudy,190,2012-12-09 06:39:00
12:53 AM,66.9,64.9,93,29.81,10.0,South,12.7,-,N/A,,Mostly Cloudy,190,2012-12-09 06:53:00
1:53 AM,66.9,64.9,93,29.81,8.0,South,13.8,19.6,N/A,,Overcast,190,2012-12-09 07:53:00
2:45 AM,66.2,64.4,94,29.81,8.0,SSW,15.0,23.0,N/A,,Overcast,200,2012-12-09 08:45:00
2:53 AM,66.9,64.9,93,29.81,8.0,SSW,11.5,23.0,N/A,,Overcast,200,2012-12-09 08:53:00
3:53 AM,66.9,64.9,93,29.80,9.0,South,11.5,21.9,N/A,,Overcast,190,2012-12-09 09:53:00
4:12 AM,68.0,64.4,88,29.82,9.0,SSW,11.5,19.6,N/A,,Overcast,200,2012-12-09 10:12:00
4:53 AM,68.0,64.9,90,29.81,8.0,SSW,11.5,-,N/A,,Overcast,200,2012-12-09 10:53:00
5:53 AM,68.0,64.9,90,29.82,9.0,South,10.4,-,N/A,,Overcast,190,2012-12-09 11:53:00
6:53 AM,66.9,64.9,93,29.83,10.0,South,10.4,-,N/A,,Overcast,190,2012-12-09 12:53:00
7:53 AM,66.9,64.9,93,29.83,9.0,South,11.5,-,N/A,,Overcast,180,2012-12-09 13:53:00
8:53 AM,68.0,64.9,90,29.84,9.0,South,10.4,-,0.00,,Overcast,190,2012-12-09 14:53:00
9:32 AM,69.8,64.4,83,29.85,10.0,South,13.8,21.9,N/A,,Mostly Cloudy,180,2012-12-09 15:32:00
9:53 AM,70.0,64.9,84,29.84,9.0,South,11.5,21.9,N/A,,Mostly Cloudy,180,2012-12-09 15:53:00
10:53 AM,70.0,64.9,84,29.83,7.0,SSW,13.8,24.2,N/A,,Overcast,200,2012-12-09 16:53:00
11:53 AM,71.1,64.9,81,29.80,7.0,SSW,11.5,23.0,N/A,,Overcast,200,2012-12-09 17:53:00
12:53 PM,72.0,64.9,78,29.78,7.0,SSW,15.0,-,N/A,,Overcast,200,2012-12-09 18:53:00
1:14 PM,73.4,64.4,73,29.78,7.0,SSW,13.8,21.9,N/A,,Mostly Cloudy,200,2012-12-09 19:14:00
1:53 PM,73.9,64.9,73,29.75,7.0,SSW,12.7,-,N/A,,Scattered Clouds,200,2012-12-09 19:53:00
2:53 PM,73.9,64.0,71,29.75,8.0,SSW,9.2,-,N/A,,Mostly Cloudy,200,2012-12-09 20:53:00
3:43 PM,73.4,64.4,73,29.76,7.0,South,6.9,-,N/A,Thunderstorm,Partly Cloudy,190,2012-12-09 21:43:00
3:53 PM,73.9,64.0,71,29.75,7.0,SSW,10.4,-,N/A,,Partly Cloudy,200,2012-12-09 21:53:00
4:03 PM,73.4,64.4,73,29.75,7.0,South,9.2,-,N/A,Thunderstorm,Thunderstorm,190,2012-12-09 22:03:00
4:29 PM,68.0,59.0,73,29.76,9.0,NNW,5.8,21.9,N/A,Thunderstorm,Thunderstorm,340,2012-12-09 22:29:00
4:53 PM,66.9,62.1,84,29.78,4.0,WSW,19.6,31.1,0.07,Rain-Thunderstorm,Thunderstorms and Rain,240,2012-12-09 22:53:00
4:55 PM,66.2,62.6,88,29.78,1.8,SW,27.6,39.1,0.07,Rain-Thunderstorm,Heavy Thunderstorms and Rain,220,2012-12-09 22:55:00
5:03 PM,64.4,62.6,94,29.79,1.2,WSW,13.8,39.1,0.12,Rain-Thunderstorm,Light Thunderstorms and Rain,240,2012-12-09 23:03:00
5:05 PM,64.4,60.8,88,29.78,1.8,SW,16.1,24.2,0.17,Rain-Thunderstorm,Light Thunderstorms and Rain,230,2012-12-09 23:05:00
5:10 PM,64.4,60.8,88,29.78,3.0,WSW,11.5,24.2,0.18,Rain-Thunderstorm,Light Thunderstorms and Rain,240,2012-12-09 23:10:00
5:20 PM,62.6,60.8,94,29.78,10.0,SW,6.9,-,0.18,Thunderstorm,Thunderstorm,230,2012-12-09 23:20:00
5:40 PM,64.4,60.8,88,29.79,9.0,SW,6.9,-,0.18,Thunderstorm,Mostly Cloudy,230,2012-12-09 23:40:00
5:53 PM,64.0,61.0,90,29.79,9.0,SW,5.8,-,0.18,Thunderstorm,Mostly Cloudy,230,2012-12-09 23:53:00
6:03 PM,64.4,60.8,88,29.79,9.0,WSW,8.1,-,N/A,,Mostly Cloudy,250,2012-12-10 00:03:00
6:53 PM,64.0,57.9,80,29.79,9.0,WNW,9.2,-,N/A,,Clear,300,2012-12-10 00:53:00
7:53 PM,62.1,54.0,75,29.81,9.0,WNW,11.5,-,N/A,,Partly Cloudy,300,2012-12-10 01:53:00
8:53 PM,57.9,50.0,75,29.83,8.0,NNW,10.4,-,N/A,,Overcast,340,2012-12-10 02:53:00
9:53 PM,55.0,48.0,77,29.86,8.0,WNW,11.5,-,N/A,,Mostly Cloudy,300,2012-12-10 03:53:00
10:53 PM,53.1,46.0,77,29.88,10.0,NW,16.1,-,0.00,Rain,Light Rain,320,2012-12-10 04:53:00
11:46 PM,51.8,44.6,76,29.87,10.0,NNW,9.2,19.6,0.00,,Overcast,330,2012-12-10 05:46:00
11:53 PM,51.1,45.0,80,29.88,10.0,NNW,10.4,-,0.00,,Overcast,340,2012-12-10 05:53:00